カタログに戻る

ATLAS 5 CENTAUR R/B

運用中LEO
NORAD 31702·ROCKET BODY·🇺🇸 United States

打ち上げ Jun 15, 2007 から Cape Canaveral Space Force Station

Loading…

次のパス (今後24時間)

TLE

最新Source: Space-Track

元期: Sep 14, 2026, 14:16 UTC

1 31702U 07027B   26257.59502281  .00010103  00000-0  37959-3 0  9994
2 31702  63.3061 311.6387 0492399  45.3068 318.7040 14.58033471123831

AllMySatでATLAS 5 CENTAUR R/Bをリアルタイム追跡

Download on the App Store